Theta_e
318 318 317 317 316 315 315 314 314 313 312 312 311 310 310 309 309 309 308 308 310 311 311 311 312 314 315 316 317 316 315 315 313 314 316 315 313 314 315 312 307 302 298 296 296 295 295 296 297 298 299 299 300 300 300 299 298 298 298 297 296 296
318 318 317 317 316 315 315 314 314 313 312 312 311 310 310 309 309 308 308 308 309 309 310 311 313 315 317 317 315 314 314 313 313 315 316 315 313 314 314 309 304 299 297 296 295 295 295 296 297 298 299 299 299 299 299 299 298 297 297 297 296 295
318 318 317 317 316 316 315 314 314 313 312 312 311 311 310 309 309 309 308 308 308 308 309 311 313 315 316 315 314 313 312 312 314 316 315 314 314 315 312 307 301 297 296 296 295 295 295 296 297 298 299 299 299 299 298 298 298 297 297 296 295 294
318 318 317 317 317 316 315 314 314 313 312 312 311 311 310 310 309 309 309 308 308 308 309 311 313 315 316 315 314 312 311 313 315 314 313 312 312 313 310 304 298 296 296 295 295 295 295 296 297 298 298 298 298 298 298 297 297 297 297 296 295 294
318 318 318 318 317 317 316 315 314 313 312 312 311 311 310 310 309 309 309 309 308 309 310 311 312 314 315 314 313 311 310 313 315 313 311 310 311 311 308 302 297 296 295 295 295 295 295 296 297 297 298 298 298 298 297 297 297 297 296 295 294 293
318 318 318 318 318 317 317 316 315 313 312 312 311 311 310 309 309 308 308 309 308 309 310 311 311 313 314 314 312 310 311 313 313 312 311 310 310 311 308 301 296 295 295 295 295 294 295 296 296 297 297 297 297 297 297 296 296 295 295 294 293 292
317 318 318 318 318 318 317 317 316 315 313 312 311 311 310 309 309 308 308 308 308 309 310 312 312 313 314 313 311 310 312 313 312 311 310 309 310 310 307 301 296 295 295 295 294 295 295 295 295 296 296 296 296 296 295 295 294 294 294 293 293 292
317 318 318 318 317 317 317 317 316 315 314 313 311 310 310 309 309 308 308 308 308 309 310 311 312 313 314 313 311 310 311 311 311 311 310 309 310 309 307 301 296 294 295 294 294 294 294 295 295 295 295 296 295 295 294 294 293 293 293 292 292 292
318 318 318 317 317 317 317 316 316 315 314 313 312 311 310 309 309 308 308 308 308 308 309 310 311 312 313 313 311 311 311 311 311 310 310 309 309 309 306 301 296 294 294 294 294 294 294 294 294 295 295 294 294 294 293 293 293 293 292 292 292 291
318 318 318 317 317 316 317 316 316 315 314 313 312 311 310 309 308 308 308 308 308 308 308 309 310 311 312 312 310 310 311 311 311 310 309 309 309 308 305 301 296 294 294 294 294 294 294 294 294 294 294 293 293 293 292 292 292 292 292 292 291 291
318 318 318 318 317 316 316 317 316 315 314 313 312 311 310 309 308 308 308 308 308 307 307 308 309 309 311 311 309 309 310 311 310 310 309 309 309 307 304 300 295 293 293 293 293 293 293 294 293 293 293 293 293 292 292 292 291 292 293 292 291 291
318 318 318 318 317 317 317 317 317 316 314 313 313 311 310 309 308 308 307 307 308 307 306 306 307 309 310 309 308 308 310 311 310 309 309 309 308 306 303 299 295 293 293 293 293 293 293 293 293 293 293 292 292 292 291 291 291 293 293 291 290 291
318 318 318 318 317 317 317 317 317 316 314 313 313 311 310 309 308 307 307 307 307 307 306 306 306 308 307 307 307 308 310 310 309 309 308 308 306 304 302 299 295 293 293 293 293 293 293 293 293 293 292 292 292 291 291 291 293 294 292 290 290 290
318 318 317 317 317 317 317 316 316 316 315 314 313 311 310 309 308 307 307 307 307 306 306 305 305 306 306 306 306 307 308 309 309 309 308 308 306 303 301 299 296 293 293 293 293 293 293 293 293 292 293 292 292 291 290 292 294 294 291 289 289 290
317 317 317 316 316 317 316 316 316 316 315 313 312 311 310 309 308 307 306 306 306 306 306 305 305 305 305 305 305 306 307 309 309 309 309 308 306 302 299 298 295 293 292 293 293 293 293 293 293 292 293 292 292 291 291 293 294 293 290 289 289 290
316 316 316 316 316 316 316 316 316 315 314 313 312 311 309 309 308 307 306 306 305 305 305 305 304 304 305 305 306 306 307 308 308 308 308 307 305 301 298 296 294 292 292 292 292 292 293 292 292 292 292 292 292 291 291 293 293 292 289 289 289 290
315 315 315 315 315 315 315 315 315 314 313 312 312 310 309 308 307 306 305 305 304 304 304 304 304 304 304 305 306 306 306 307 307 307 307 306 305 302 297 294 293 292 291 292 292 292 292 292 292 291 291 292 291 290 291 293 293 291 289 290 290 290
314 314 314 314 314 314 315 315 314 314 312 312 311 309 308 307 305 305 304 304 303 303 303 303 303 304 304 305 306 306 306 306 306 306 306 304 303 302 298 294 292 291 291 291 291 291 291 291 291 290 291 292 291 290 292 293 292 290 290 290 290 290
314 313 313 313 313 313 314 314 313 313 312 311 310 308 307 305 304 304 303 302 302 302 302 302 302 303 303 304 305 306 306 306 306 306 305 304 303 302 300 295 292 290 290 290 290 290 290 290 290 290 291 291 290 290 293 293 292 291 290 290 290 290
314 313 313 313 312 312 312 312 312 311 310 309 308 306 305 304 304 303 302 301 301 301 301 301 301 302 302 303 304 305 305 305 305 304 303 303 301 301 300 298 295 292 290 289 289 289 289 289 289 290 290 290 289 291 293 293 291 290 290 290 290 290
314 313 313 312 311 311 310 310 310 309 308 307 306 305 304 303 302 302 301 300 300 300 300 300 300 300 301 301 302 303 303 303 302 301 301 300 299 298 297 296 295 293 291 288 288 288 288 288 289 290 289 289 290 292 294 292 291 290 290 290 290 290
313 313 312 311 310 309 309 308 308 307 306 305 304 303 302 302 301 300 300 299 299 299 299 299 299 299 299 300 300 301 301 300 300 299 298 297 297 296 295 295 294 293 292 290 289 289 288 289 290 290 289 288 290 293 294 292 290 290 290 290 290 290
312 311 311 309 308 308 307 307 306 305 304 303 302 302 301 300 300 299 299 299 299 299 298 298 298 298 298 299 299 298 298 297 297 296 296 296 296 296 296 295 295 295 294 293 292 292 291 291 291 290 289 289 291 293 293 291 290 289 289 289 289 289
310 309 308 307 307 306 306 305 305 304 304 303 302 302 301 300 300 299 299 299 299 298 298 298 298 298 298 297 297 297 297 296 296 296 296 297 297 296 296 296 295 295 295 294 294 293 293 292 292 291 291 292 292 292 291 290 289 289 289 289 289 289
307 307 306 306 306 305 305 305 305 304 304 303 303 302 301 301 300 300 299 299 299 298 298 298 298 297 297 297 297 297 298 298 298 298 298 298 297 297 296 296 295 295 294 293 293 293 292 292 292 292 292 291 291 290 290 289 289 288 288 288 288 288
306 306 306 306 306 305 305 305 305 305 305 304 303 303 302 301 301 300 300 300 300 299 299 299 299 298 298 298 299 299 299 299 298 298 297 297 297 296 295 294 293 293 292 291 291 291 290 290 290 290 290 289 289 289 288 288 287 287 287 287 287 287
307 307 307 306 306 306 305 304 304 305 305 304 303 303 302 302 302 302 301 301 301 301 300 300 300 299 299 299 299 298 298 297 297 296 295 295 294 293 292 291 290 290 290 289 289 289 288 288 288 288 287 287 287 287 286 286 286 286 286 286 286 286
307 307 307 307 306 305 304 303 302 304 304 304 304 303 303 303 303 302 302 302 301 301 300 300 299 298 297 297 296 296 295 295 294 293 293 292 291 291 290 290 290 290 289 289 289 289 289 288 288 288 288 288 288 287 287 287 287 287 287 287 287 288
306 306 306 306 305 304 304 303 302 303 304 304 303 303 302 302 302 302 301 301 300 299 298 298 297 296 295 295 294 294 293 293 292 292 292 291 291 291 291 291 291 291 290 290 290 290 290 290 290 289 289 289 289 289 289 288 288 288 288 288 288 288
305 305 305 305 304 303 303 303 302 302 302 302 302 301 301 300 300 299 299 298 297 297 296 295 295 295 294 294 293 293 293 293 292 292 292 292 291 291 291 291 290 290 290 290 290 290 290 290 289 289 289 289 289 289 289 289 288 288 288 288 287 287
304 304 304 304 303 302 302 302 301 301 300 300 299 299 298 298 297 297 296 296 296 295 295 295 294 294 294 293 293 293 292 292 291 291 291 291 290 290 290 290 290 290 290 290 289 289 289 289 289 289 289 289 289 289 289 289 288 288 288 287 287 287
303 303 303 302 301 300 300 299 299 298 297 297 297 297 296 296 296 295 295 295 294 294 293 293 293 292 292 292 291 291 291 290 290 290 290 290 290 290 290 290 290 290 290 289 290 290 290 290 290 290 290 289 289 289 289 289 288 288 288 287 287 286
300 300 299 299 298 297 297 297 297 296 296 296 295 295 294 294 294 293 293 292 292 292 291 291 291 291 291 290 290 290 290 290 290 290 290 290 290 290 290 290 290 290 290 290 290 290 290 290 290 289 289 289 289 288 288 288 287 287 287 286 285 285
297 297 296 296 296 296 296 296 295 295 294 294 293 292 292 292 292 292 291 291 291 291 290 290 290 290 290 290 290 290 290 290 290 290 290 290 290 290 290 290 290 290 290 290 290 290 289 289 289 289 288 288 288 287 287 286 286 285 285 284 283 283
296 295 295 295 296 296 295 295 294 293 292 292 292 291 291 291 291 291 291 291 291 291 291 290 290 290 290 290 290 290 290 290 290 290 290 290 290 290 290 290 290 290 290 289 289 289 289 288 288 288 287 287 287 286 285 285 284 284 284 283 282 282
295 294 294 295 295 294 293 293 292 292 291 291 291 291 291 291 291 291 291 291 291 291 291 291 290 290 290 290 290 290 290 290 290 290 290 290 290 290 290 290 289 289 289 288 288 288 287 287 287 287 286 286 285 284 284 284 283 283 283 282 282 281
294 293 293 293 293 292 292 292 292 291 291 291 291 291 291 291 291 291 291 291 291 291 291 290 290 290 290 290 290 290 290 290 290 290 290 290 290 289 289 289 288 288 288 287 287 287 286 286 286 285 285 284 284 283 283 283 282 282 282 281 281 280
293 293 293 292 292 292 291 291 291 291 291 291 291 291 291 291 291 291 291 291 291 290 290 290 290 290 290 290 290 290 290 290 290 290 290 289 289 288 288 288 287 287 287 286 286 286 285 285 284 284 283 283 283 282 282 282 282 281 281 280 279 279
Wind_Speed
1 4 6 8 8 10 12 13 15 17 19 21 22 25 27 29 31 32 33 33 33 32 32 32 32 33 33 33 31 28 26 26 27 29 30 27 26 31 34 36 39 40 40 39 37 37 36 36 35 33 31 29 26 24 21 19 18 15 13 11 10 10
1 3 4 7 8 10 12 14 16 18 19 21 22 24 26 28 31 33 33 33 32 32 32 32 32 33 34 33 29 26 26 27 29 32 31 26 25 31 34 37 41 42 41 40 39 38 38 37 36 34 31 29 26 24 22 19 17 15 13 11 10 10
1 3 4 5 8 10 13 15 17 18 19 21 23 24 26 28 30 32 32 31 31 31 32 32 31 32 33 31 27 26 27 28 30 31 29 25 26 31 34 38 42 42 41 41 40 39 38 38 37 34 32 29 27 25 22 19 16 14 12 11 10 11
3 4 4 5 7 10 13 15 17 19 20 21 23 25 27 28 30 31 31 31 30 30 30 30 30 32 33 31 28 27 29 31 31 28 26 26 28 31 34 40 43 42 42 41 40 40 39 38 37 35 32 30 27 25 22 19 17 14 12 11 10 10
6 5 4 5 8 10 12 15 17 19 20 20 22 25 27 28 29 30 31 31 30 29 29 30 30 32 34 33 31 30 32 33 32 28 26 27 30 31 35 41 43 43 42 42 41 41 40 39 37 35 33 30 27 24 22 19 17 14 12 10 10 10
8 6 6 7 9 10 12 15 16 18 20 20 22 24 26 28 29 30 31 32 31 29 30 31 31 33 35 33 31 32 34 34 32 28 25 27 29 31 36 42 44 44 43 43 42 41 40 39 38 35 33 30 27 24 22 19 16 14 12 10 10 10
11 11 11 10 10 10 12 14 16 18 20 20 22 23 25 27 28 29 31 32 32 31 31 32 32 34 36 32 29 30 32 32 32 29 26 27 30 32 36 43 45 45 45 44 43 42 41 39 37 35 32 29 27 24 22 19 16 14 12 10 10 10
16 17 17 15 13 12 13 15 16 18 19 21 22 23 25 27 28 29 30 32 33 33 33 34 34 35 36 33 30 30 30 30 31 31 29 30 31 33 38 44 47 46 45 43 42 41 40 38 36 34 32 29 27 24 22 19 17 15 13 11 11 10
19 21 21 21 19 15 14 15 17 19 19 21 22 23 24 26 28 28 30 31 33 33 34 35 35 35 34 32 31 32 33 32 32 32 31 32 33 34 39 45 48 47 45 43 42 41 39 38 36 34 31 29 26 24 21 19 17 15 13 12 11 11
22 23 24 26 23 19 16 17 19 20 20 21 23 24 25 27 28 28 29 31 32 34 35 35 35 34 34 32 32 34 35 35 35 33 32 33 34 34 39 45 48 47 45 43 42 41 39 38 36 34 31 28 26 24 22 20 17 15 14 13 13 13
26 26 27 28 26 23 20 20 22 22 22 22 23 25 26 27 28 29 30 31 32 33 34 34 34 34 34 33 34 35 34 34 35 34 34 35 34 34 37 44 48 48 46 44 42 41 40 39 37 33 30 28 26 24 22 20 18 17 16 16 16 15
29 28 29 30 29 28 26 25 25 24 22 22 23 25 26 28 29 30 31 32 32 33 33 33 34 34 34 34 35 35 34 32 33 34 35 34 33 33 37 43 48 49 46 44 43 42 41 39 36 33 30 28 26 24 22 21 20 19 18 18 18 17
32 31 31 31 30 31 31 29 26 24 23 22 22 24 26 28 29 30 31 32 33 33 32 32 33 34 35 34 34 34 34 32 31 31 32 31 31 33 36 42 47 49 47 45 43 42 41 39 36 33 30 28 27 25 24 24 24 22 20 20 21 19
36 34 33 31 30 31 31 30 27 25 25 22 21 23 25 27 29 30 30 31 33 34 33 32 32 33 34 33 33 34 34 32 29 29 30 29 29 31 35 40 46 48 47 46 44 42 41 39 36 33 31 30 28 27 27 27 27 23 21 23 23 22
37 34 31 30 29 29 29 28 27 26 25 22 20 21 23 26 28 29 30 31 32 34 34 33 32 32 31 31 31 32 33 32 30 30 29 28 27 30 34 39 45 48 48 46 45 43 41 39 37 34 32 31 30 29 30 30 27 24 23 25 25 26
33 31 29 28 27 28 28 28 28 26 23 21 19 20 22 24 27 28 29 30 32 34 34 34 33 31 29 29 29 29 31 31 30 30 30 28 28 30 34 38 44 47 48 46 45 43 41 39 37 35 33 31 31 31 31 30 27 24 25 27 29 32
30 29 28 27 26 27 28 28 28 26 24 21 20 21 22 23 25 26 27 29 31 33 34 34 33 31 29 29 29 29 29 29 29 29 31 31 29 30 32 37 42 45 46 45 44 43 42 40 37 35 33 32 32 32 32 30 27 26 28 30 33 35
30 28 26 26 26 27 27 27 27 26 24 21 19 20 21 22 23 24 25 27 29 31 32 32 32 31 30 29 30 30 28 27 28 29 31 31 30 30 31 35 40 43 45 45 44 44 42 40 37 34 33 32 33 33 32 31 28 28 31 33 35 36
26 25 24 24 24 26 27 26 26 25 22 20 19 19 20 20 20 20 21 24 26 28 30 30 30 30 29 28 28 28 27 27 28 28 29 30 30 29 30 33 37 40 42 43 44 43 42 39 36 34 33 33 33 32 32 31 30 31 34 35 36 37
21 21 21 21 20 21 23 23 22 20 18 17 17 16 17 17 16 16 17 19 21 23 24 26 26 26 27 26 25 25 26 27 27 26 26 27 27 27 28 29 31 34 37 39 40 40 39 38 35 33 32 32 32 32 33 32 32 33 36 36 37 38
18 18 17 16 16 17 18 18 17 16 14 13 13 13 13 12 11 11 12 13 15 17 18 20 21 22 23 23 23 24 25 25 24 22 22 22 23 23 23 24 25 28 32 34 35 35 35 34 32 31 31 32 32 34 35 33 33 35 36 37 38 40
18 17 14 13 14 14 15 14 14 13 11 11 11 11 10 10 10 9 10 10 11 12 13 15 16 17 17 18 20 20 21 20 19 18 17 17 18 18 18 18 19 22 25 28 31 33 34 34 33 32 33 35 36 37 35 33 33 35 37 38 40 42
17 15 13 13 12 12 13 13 12 12 13 14 14 14 14 14 13 13 13 12 12 11 11 11 12 12 13 14 15 15 15 15 13 12 12 12 12 12 12 13 14 16 18 20 24 27 30 33 34 34 35 37 38 36 33 32 33 35 37 40 42 44
14 12 11 11 11 12 13 14 15 16 17 18 17 17 17 17 16 16 15 15 14 13 12 12 11 11 11 11 11 11 11 10 9 9 9 9 9 9 10 11 11 12 13 14 16 18 21 24 26 28 29 30 31 29 28 30 32 35 38 42 44 47
12 12 13 14 15 15 15 17 18 19 19 19 19 19 19 18 18 17 17 16 16 15 14 14 13 13 12 11 11 11 10 10 10 10 10 11 11 11 11 11 10 10 9 9 10 11 13 14 16 18 19 21 22 24 26 29 33 36 39 43 46 48
15 16 17 18 18 18 18 18 19 20 20 20 19 19 19 19 18 18 17 17 17 16 16 16 15 15 14 14 14 13 13 13 14 13 13 13 12 11 10 9 8 7 7 6 7 7 8 10 11 13 15 17 20 23 26 29 32 35 37 40 43 44
18 19 20 19 19 19 19 19 19 19 19 18 18 18 17 18 18 18 18 18 18 18 18 17 17 17 17 16 16 16 15 15 14 14 13 12 11 9 8 7 6 6 6 5 5 6 7 8 10 11 14 16 18 21 23 25 28 29 31 34 37 37
19 19 20 20 20 20 20 20 19 17 17 17 17 18 17 18 19 19 19 20 20 19 19 19 19 19 18 18 17 16 15 14 14 13 12 11 10 9 8 7 6 5 5 4 4 5 7 8 10 11 13 15 18 19 21 23 24 26 27 30 32 33
19 19 19 19 21 21 21 21 20 18 18 18 19 19 19 19 19 19 20 20 20 19 19 19 18 18 18 17 16 15 15 14 12 11 10 10 9 8 7 6 5 4 4 4 4 6 7 9 10 11 13 15 17 18 20 21 23 24 26 28 29 30
19 19 19 19 21 21 21 21 20 19 19 18 19 19 19 19 19 19 19 19 19 19 18 18 17 17 16 15 15 14 13 12 11 11 10 9 8 7 6 5 4 3 4 4 5 6 8 9 10 12 14 15 17 19 20 22 23 25 26 27 28 28
18 19 19 19 21 20 20 20 19 19 19 18 18 19 19 19 19 19 19 19 18 18 18 17 17 16 15 15 15 15 14 13 12 12 10 9 8 7 5 4 4 4 4 4 6 7 9 10 11 13 15 17 18 20 21 23 24 25 26 26 26 27
18 18 19 20 20 19 19 20 20 20 20 19 19 19 18 19 20 19 19 19 18 18 17 17 17 16 15 15 14 14 14 13 12 11 9 7 7 6 5 4 3 4 4 6 8 9 11 13 14 16 17 18 20 21 23 24 24 25 26 26 25 26
18 18 19 21 21 20 21 21 21 21 21 20 20 19 17 17 18 18 18 18 17 17 16 15 15 15 14 14 13 12 12 11 10 10 9 7 6 4 3 3 4 6 7 8 10 12 13 14 15 16 17 18 20 21 21 22 23 23 24 24 23 24
20 20 21 22 22 22 22 22 22 21 20 20 20 18 16 15 15 16 17 17 16 16 15 14 14 13 13 13 12 11 11 10 9 8 7 6 4 4 4 5 6 8 9 10 11 12 13 14 14 16 17 18 19 20 20 20 20 21 21 20 19 21
22 22 22 23 23 22 22 22 21 21 20 19 19 18 16 15 14 14 15 16 15 15 14 13 13 12 11 11 11 10 10 8 7 6 5 5 5 6 6 7 8 9 9 10 11 12 13 13 14 16 17 17 18 18 18 18 18 19 20 20 19 20
23 23 23 23 23 22 21 21 21 21 20 19 19 19 17 15 14 14 13 13 13 12 12 11 11 10 10 10 9 9 8 7 6 6 7 7 7 7 7 8 8 9 9 10 10 11 12 13 14 16 17 17 17 17 17 17 17 18 20 20 20 20
23 23 23 23 23 22 21 21 21 20 20 19 18 18 16 15 14 13 12 12 11 11 11 11 11 10 10 9 9 8 8 7 7 8 8 8 8 8 8 8 7 8 9 9 10 11 12 13 15 17 17 17 17 16 17 18 18 19 19 20 20 20
23 23 23 23 22 22 21 20 20 20 19 18 17 16 15 14 13 12 12 12 12 12 11 11 11 11 10 10 9 9 9 9 9 9 9 8 7 7 7 7 7 7 8 9 11 12 13 14 16 16 17 17 17 17 17 18 19 19 19 19 19 19
Wind_Direction
312 306 297 291 282 273 265 258 255 250 248 248 245 245 243 241 240 238 236 234 231 230 229 226 223 222 225 229 227 226 232 239 240 231 221 218 220 220 218 215 210 202 199 200 201 200 199 198 197 196 195 195 195 194 193 194 194 196 200 201 206 216
278 274 278 286 280 274 266 257 254 251 249 248 245 243 242 239 238 238 237 234 231 230 229 226 224 225 229 228 224 229 234 235 235 229 219 218 223 222 220 217 208 202 201 202 202 202 200 199 198 198 198 197 197 197 197 197 197 198 202 206 214 223
233 259 261 278 279 275 270 262 257 253 248 247 246 243 242 239 237 238 236 234 232 230 227 224 223 226 225 222 226 234 234 232 233 227 219 222 229 226 222 216 207 203 204 204 203 203 202 201 200 200 200 200 199 199 199 200 199 201 205 209 218 229
227 252 258 281 290 285 277 270 262 256 250 248 247 244 244 241 239 238 236 234 233 230 225 222 221 223 221 223 233 237 233 230 226 221 220 227 232 230 223 215 209 206 207 207 206 204 203 204 203 203 203 202 201 201 201 202 202 205 209 213 221 233
227 245 266 295 302 298 289 279 271 263 257 252 250 247 246 244 242 240 238 235 233 229 225 222 221 223 224 228 234 234 233 230 219 216 224 227 231 232 224 216 211 209 210 210 208 206 205 205 205 206 206 204 204 205 205 206 206 208 212 216 225 236
240 257 277 294 300 302 298 288 279 272 264 257 253 251 249 247 244 242 238 235 232 228 225 224 224 226 225 226 230 233 236 229 216 217 225 226 231 233 224 217 214 212 213 212 210 209 208 207 207 208 207 207 207 208 210 210 210 211 215 218 226 238
257 270 278 282 288 293 295 293 287 279 272 265 258 253 251 249 246 243 239 235 231 227 225 225 225 227 225 224 230 237 236 225 218 224 231 232 236 233 225 220 217 215 215 214 213 211 210 209 210 210 210 209 210 212 213 212 212 215 220 224 230 240
271 276 278 277 279 282 288 292 290 282 275 269 261 254 251 249 247 244 241 236 231 227 226 225 226 227 227 225 228 234 233 227 229 234 235 237 238 232 226 223 219 217 217 216 215 214 212 212 212 213 213 213 214 216 215 215 216 218 223 230 236 243
281 282 282 281 279 278 284 290 289 282 275 269 263 256 252 249 247 244 241 238 233 229 228 227 227 229 229 228 230 234 231 228 232 237 237 238 240 234 228 225 222 219 218 217 217 216 215 215 215 215 216 216 218 219 220 222 223 224 229 237 241 245
285 285 288 287 281 277 283 292 291 281 273 268 262 257 253 249 247 245 242 239 236 232 229 228 228 228 230 231 234 238 236 231 231 234 236 238 239 235 230 226 223 220 219 219 218 218 218 218 218 218 217 218 221 222 224 227 228 231 238 243 243 248
282 284 289 290 284 280 284 292 292 283 274 269 263 256 253 250 247 245 243 241 239 236 231 229 228 228 230 232 234 237 239 237 234 233 235 237 238 236 231 227 224 222 220 220 220 220 220 220 220 219 220 222 224 226 229 229 231 239 247 246 243 249
280 281 285 287 286 286 289 291 290 285 278 272 266 259 254 251 247 245 243 243 242 239 234 230 229 229 232 233 233 234 237 239 238 236 236 239 239 236 231 226 224 222 221 222 222 221 221 221 221 221 222 225 227 230 231 230 236 248 251 245 241 248
277 278 280 283 285 286 289 289 287 284 280 274 268 261 254 251 249 246 244 243 242 240 237 232 229 229 233 233 231 231 235 240 241 238 238 240 240 237 232 226 223 223 223 223 224 224 224 224 223 223 224 226 229 231 230 234 246 254 250 242 241 249
275 278 279 280 282 282 284 285 283 282 281 277 272 263 255 251 250 248 245 243 241 240 239 235 230 230 232 232 230 230 234 239 239 237 240 242 240 237 232 226 224 224 224 224 225 226 227 226 225 225 226 229 231 231 233 242 254 256 246 239 241 251
273 276 277 278 278 277 278 279 278 279 279 277 271 261 254 251 250 248 245 243 241 239 239 237 234 232 231 231 232 231 233 238 236 234 240 243 239 237 232 227 225 224 225 226 227 227 228 228 227 227 229 231 233 234 238 249 258 255 244 240 244 255
273 275 276 276 274 273 272 272 273 275 275 272 263 251 247 248 247 246 244 242 241 239 238 236 235 234 233 233 234 232 234 239 238 235 238 242 240 237 234 230 227 225 226 227 228 230 230 229 228 228 229 232 234 236 242 253 258 251 243 244 250 258
275 276 274 271 268 265 265 266 269 272 271 266 255 244 242 243 244 244 242 240 240 238 237 235 234 234 233 233 235 235 236 241 243 240 240 241 240 239 237 234 230 229 229 229 230 231 232 231 230 228 229 234 235 236 245 256 256 247 245 250 254 259
276 274 269 266 263 260 261 262 264 268 267 259 247 239 239 240 240 241 239 238 238 237 236 235 233 233 233 233 235 236 236 241 246 245 244 243 242 240 238 236 233 231 231 231 232 233 233 233 230 229 233 238 235 237 249 259 257 249 250 254 256 259
274 272 269 266 263 259 260 261 262 263 260 250 240 234 234 236 237 237 236 236 236 236 236 235 234 233 234 234 236 237 238 242 246 248 248 247 245 244 242 240 237 234 234 233 233 233 233 233 231 232 238 238 235 242 257 263 259 254 254 258 260 262
271 272 272 269 265 261 259 259 258 254 248 239 232 228 229 230 230 230 230 231 233 234 235 236 236 236 235 234 236 238 241 245 248 250 250 249 249 248 247 246 242 239 238 237 236 235 234 233 233 236 239 237 238 251 262 262 258 257 259 262 265 266
268 269 270 267 263 258 253 249 244 238 231 223 215 213 214 213 212 214 216 220 225 228 232 234 236 236 236 235 236 238 244 249 251 251 251 249 250 250 250 249 246 242 241 240 239 238 237 236 238 241 240 237 243 256 262 260 259 260 263 266 269 270
264 264 263 258 251 244 237 230 223 213 202 193 186 181 176 172 172 176 184 194 202 210 218 225 228 231 232 233 235 238 244 248 250 250 250 250 251 252 251 252 251 248 246 244 241 240 240 241 244 244 239 239 249 260 262 259 260 263 266 270 272 273
258 257 252 243 233 224 215 204 193 180 166 159 155 152 150 150 153 157 163 169 176 184 193 201 209 215 219 224 230 234 238 242 243 245 246 246 247 249 249 249 249 249 248 246 244 242 242 243 244 244 243 246 253 259 259 258 260 264 268 271 273 274
246 239 227 213 196 186 178 167 159 154 149 147 147 147 148 148 151 154 155 158 161 165 169 175 182 190 197 206 212 216 219 223 224 224 225 226 227 231 233 235 237 240 243 244 245 245 245 245 246 247 248 250 253 254 254 257 261 264 267 270 273 274
215 201 188 175 164 159 154 150 150 149 148 148 149 149 151 152 153 154 154 155 157 157 160 164 168 174 180 185 189 193 196 200 201 202 206 209 214 218 221 224 227 230 232 235 237 240 242 243 246 248 249 249 251 253 256 259 262 264 266 269 272 275
187 177 168 160 154 151 148 150 152 152 151 152 152 153 154 153 153 153 153 153 154 155 158 161 164 168 171 174 178 181 184 188 192 195 198 201 205 208 209 212 215 217 220 224 228 235 242 246 250 254 257 259 261 262 264 265 266 267 268 270 272 275
178 171 164 158 154 151 149 151 155 154 153 152 151 151 150 148 148 148 149 150 152 155 157 160 163 166 168 171 174 176 178 182 184 185 187 189 190 191 193 196 200 207 214 220 226 237 248 254 257 261 264 266 266 265 266 266 266 267 268 269 271 274
173 169 164 158 155 153 150 150 154 155 151 148 147 146 146 147 147 148 150 151 153 155 157 159 162 163 165 167 169 170 171 173 174 173 174 176 177 176 180 186 191 199 209 218 226 238 249 254 257 258 259 260 262 263 264 266 267 268 270 271 274 276
170 166 163 159 155 154 152 151 152 153 150 148 148 146 147 150 149 150 151 151 152 153 155 157 159 160 161 163 164 165 166 166 166 166 165 165 166 166 168 172 176 184 195 210 225 236 246 252 257 261 263 265 269 272 273 275 275 276 276 276 277 277
167 162 162 161 155 154 154 152 151 151 149 148 148 147 148 149 148 148 148 148 149 151 152 154 157 157 158 158 157 157 156 155 153 151 149 149 147 145 147 151 160 183 203 223 240 251 260 266 270 275 277 280 282 282 282 283 282 282 283 283 284 284
164 162 163 160 154 152 152 151 150 149 148 147 147 147 146 145 145 145 145 145 148 149 149 151 152 151 151 150 149 147 145 142 141 139 139 140 140 143 154 166 187 218 236 253 266 273 281 283 285 287 287 288 289 288 288 289 289 290 291 291 292 291
162 164 162 155 151 150 149 148 147 145 144 142 141 142 143 142 142 143 143 144 145 145 145 145 144 142 142 141 140 140 139 138 138 140 143 149 156 164 178 191 219 255 273 283 287 289 290 291 291 292 292 291 291 291 292 293 295 296 297 297 298 298
163 163 159 150 146 146 146 146 144 141 141 139 137 138 142 143 143 144 143 141 141 140 139 139 139 139 139 139 139 141 143 146 152 156 158 165 172 182 208 244 272 284 287 288 288 288 288 289 290 290 290 291 292 295 298 300 301 301 301 301 301 300
159 158 154 147 144 145 146 145 142 141 141 140 138 138 141 144 147 146 143 141 142 141 141 143 144 144 146 149 152 155 158 163 168 168 169 176 196 232 260 270 275 277 277 278 280 282 284 287 289 292 295 298 301 304 306 306 305 302 301 300 298 295
156 156 152 147 146 148 148 147 144 143 143 143 143 142 142 145 149 148 146 145 147 148 149 151 154 156 158 162 166 168 170 175 182 192 206 221 236 249 255 257 262 265 268 273 279 284 289 293 296 299 301 302 304 307 306 305 302 299 299 299 296 293
156 155 152 149 150 151 152 152 150 149 149 149 149 149 150 152 153 154 154 153 155 158 161 162 166 170 172 173 177 179 184 192 206 222 236 241 241 242 244 247 254 261 268 274 281 287 293 297 298 298 300 301 303 303 301 299 297 295 296 298 297 296
158 156 154 154 155 156 158 158 157 156 157 158 156 157 161 163 164 166 168 166 168 173 175 176 178 181 182 185 189 194 203 212 218 223 226 229 230 234 239 245 254 264 273 279 284 289 293 296 297 298 300 301 301 300 297 297 296 296 297 298 298 297
160 159 158 159 160 162 164 166 165 164 166 166 165 166 170 174 178 181 183 183 183 184 185 186 186 187 191 196 199 202 207 210 213 215 218 221 228 234 242 250 257 265 274 281 287 292 295 296 297 298 299 299 299 298 298 297 297 297 298 298 299 299